{"data":{"norad_id":43819,"epoch":"2026-09-20T01:11:09.040416Z","epoch_age_seconds":97272,"freshness":"FRESH","line1":"1 43819U 18099BP  26263.04941019  .00001749  00000+0  12092-3 0  9996","line2":"2 43819  97.3895 298.0522 0018894  30.9463 329.2874 15.06830011426036","mean_motion":15.06830011,"eccentricity":0.0018894,"inclination_deg":97.3895,"raan_deg":298.0522,"arg_perigee_deg":30.9463,"mean_anomaly_deg":329.2874,"bstar":0.00012092,"rev_number":42603,"period_min":95.564860633772,"perigee_km":532.81168550784,"apogee_km":558.97621366012,"semimajor_km":6924.030949584,"source":"CELESTRAK","updated_at":"2026-09-20T09:00:14.411342Z"}}